Content
SEND FEEDBACK

Daily
Averages
Monthly
Summary
United States of America

AGAT, GUAM


Home > North America > United States > Guam
Elevation: 364 feet     Latitude: 13 33N     Longitude: 144 50E

WEATHER
 
SELECT A DAY
Number of Records: 209,165;   Date Range: 1/1/95 - 8/30/14
 
SHARE

PRINT THIS DATA

[ ← Previous Day ]
WEATHER ALMANAC - JULY 7, 2013
[ Next Day → ]
[ °C ]   °F
We're sorry. There is no daily almanac available for Agat, Guam on July 7, 2013.
WEATHER BY HOUR - JULY 7, 2013
[ °C ]   °F
Local TimeTemperatureDewpointHumidityBarometerVisibilityWind DirectionWind SpeedGust SpeedPrecipitationEventsConditions
1:54 AM82.0 °F75.9 °F82 %29.84 in10.0 miCalmClear
2:54 AM81.0 °F75.9 °F85 %29.83 in10.0 miCalmClear
3:54 AM81.0 °F75.9 °F85 %29.83 in10.0 miCalmClear
4:54 AM79.0 °F75.0 °F88 %29.82 in10.0 miCalmPartly Cloudy
5:54 AM77.0 °F73.9 °F90 %29.82 in10.0 miCalmClear
6:54 AM82.0 °F75.9 °F82 %29.83 in10.0 miCalmClear
7:54 AM82.9 °F78.1 °F85 %29.85 in9.0 miESE (120°)3.5 mph0.00 inRainLight Rain
8:54 AM84.9 °F75.9 °F74 %29.86 in10.0 miEast (100°)6.9 mph0.00 inScattered Clouds
9:54 AM87.1 °F75.0 °F67 %29.85 in10.0 miSE (130°)5.8 mphScattered Clouds
10:54 AM88.0 °F75.0 °F65 %29.85 in10.0 miSSE (150°)8.1 mphPartly Cloudy
11:22 AM89.6 °F75.2 °F62 %29.87 in10.0 miSSE (160°)8.1 mphThunderstormThunderstorm
11:49 AM87.8 °F75.2 °F66 %29.86 in10.0 miESE (120°)4.6 mphMostly Cloudy
11:54 AM87.1 °F75.0 °F67 %29.84 in10.0 miSE (140°)10.4 mphMostly Cloudy
12:07 PM87.8 °F75.2 °F66 %29.86 in10.0 miSE (140°)5.8 mphThunderstormThunderstorm
12:37 PM87.8 °F75.2 °F66 %29.85 in10.0 miSouth (170°)6.9 mphScattered Clouds
12:54 PM89.1 °F73.9 °F61 %29.82 in10.0 miSSE (160°)8.1 mphScattered Clouds
1:06 PM89.6 °F75.2 °F62 %29.85 in10.0 miCalmThunderstormThunderstorm
1:25 PM89.6 °F75.2 °F62 %29.84 in10.0 miESE (120°)5.8 mphScattered Clouds
1:48 PM87.8 °F75.2 °F66 %29.84 in10.0 miNorth (10°)6.9 mphMostly Cloudy
1:54 PM87.1 °F75.0 °F67 %29.82 in10.0 miNorth (350°)4.6 mphMostly Cloudy
2:02 PM87.8 °F75.2 °F66 %29.84 in10.0 miCalmThunderstormThunderstorm
2:32 PM87.8 °F75.2 °F66 %29.83 in10.0 miWNW (300°)5.8 mphThunderstormThunderstorm
2:54 PM87.1 °F73.9 °F65 %29.81 in10.0 miNW (310°)3.5 mph0.00 inRainLight Rain
3:43 PM89.6 °F75.2 °F62 %29.83 in10.0 miNW (320°)5.8 mph0.00 inRainLight Rain
3:54 PM84.9 °F73.9 °F69 %29.81 in10.0 miWNW (290°)5.8 mph0.00 inRainLight Rain
4:54 PM81.0 °F75.9 °F85 %29.80 in10.0 miWSW (250°)5.8 mph0.07 inRainLight Rain
5:01 PM82.4 °F75.2 °F79 %29.82 in10.0 miWest (270°)6.9 mphOvercast
5:54 PM84.0 °F77.0 °F79 %29.80 in10.0 miCalmClear
6:54 PM82.9 °F75.9 °F79 %29.81 in10.0 miCalmPartly Cloudy
7:54 PM82.9 °F77.0 °F82 %29.82 in10.0 miCalmPartly Cloudy
8:54 PM82.0 °F75.9 °F82 %29.83 in10.0 miSouth (180°)3.5 mphPartly Cloudy
9:54 PM81.0 °F75.9 °F85 %29.84 in10.0 miCalmPartly Cloudy
10:54 PM81.0 °F75.0 °F82 %29.85 in10.0 miCalmPartly Cloudy
11:54 PM81.0 °F75.0 °F82 %29.83 in10.0 miCalmPartly Cloudy
Hourly data recorded from PGUM, located miles away from Agat, Guam







STORIES FROM OUR PARTNERS